Location: Songkhla
(7.2000°N, 100.6000°E)
Time: 01:28:56
(UTC+07:00)

LAPAN A2 - All Passes

Search period start: 21 January 2021 00:00
Search period end: 31 January 2021 00:00
Orbit: 631 x 649 km, 6.0° (Epoch: 20 January)

Date Brightness Start Highest point End Pass type
(mag) Time Alt. Az. Time Alt. Az. Time Alt. Az.
21 Jan - 00:52:51 10° SW 00:55:49 16° S 00:58:48 10° SE night (unlit)
21 Jan - 02:37:22 10° SW 02:40:28 17° S 02:43:35 10° SE night (unlit)
21 Jan - 04:21:29 10° SW 04:25:04 21° S 04:28:39 10° SE visible
21 Jan - 06:05:29 10° SW 06:09:35 28° S 06:13:40 10° ESE visible
21 Jan - 07:49:33 10° WSW 07:54:02 39° S 07:58:28 10° ESE daylight
21 Jan - 09:33:46 10° WSW 09:38:25 56° S 09:43:03 10° E daylight
21 Jan - 11:18:06 10° W 11:22:49 71° S 11:27:31 10° E daylight
21 Jan - 13:02:30 10° W 13:07:13 77° S 13:11:54 10° E daylight
21 Jan - 14:46:55 10° W 14:51:36 70° S 14:56:17 10° E daylight
21 Jan - 16:31:23 10° W 16:35:59 54° S 16:40:35 10° ESE daylight
21 Jan - 18:15:59 10° WSW 18:20:22 38° S 18:24:46 10° ESE daylight
21 Jan - 20:00:48 10° WSW 20:04:48 27° S 20:08:49 10° SE visible
21 Jan - 21:45:49 10° SW 21:49:18 20° S 21:52:48 10° SE visible
21 Jan - 23:30:51 10° SW 23:33:54 17° S 23:36:58 10° SE night (unlit)
22 Jan - 01:15:34 10° SW 01:18:33 16° S 01:21:32 10° SE night (unlit)
22 Jan - 02:59:50 10° SW 03:03:10 18° S 03:06:31 10° SE visible
22 Jan - 04:43:51 10° SW 04:47:44 24° S 04:51:35 10° ESE visible
22 Jan - 06:27:53 10° WSW 06:32:12 33° S 06:36:30 10° ESE daylight
22 Jan - 08:12:01 10° WSW 08:16:37 48° S 08:21:12 10° E daylight
22 Jan - 09:56:18 10° WSW 10:01:01 64° S 10:05:42 10° E daylight
22 Jan - 11:40:41 10° W 11:45:25 76° S 11:50:08 10° E daylight
22 Jan - 13:25:06 10° W 13:29:49 75° S 13:34:31 10° E daylight
22 Jan - 15:09:33 10° W 15:14:12 62° S 15:18:51 10° ESE daylight
22 Jan - 16:54:05 10° W 16:58:35 45° S 17:03:05 10° ESE daylight
22 Jan - 18:38:47 10° WSW 18:42:59 31° S 18:47:11 10° ESE visible
22 Jan - 20:23:43 10° WSW 20:27:26 23° S 20:31:11 10° SE visible
22 Jan - 22:08:47 10° SW 22:11:59 18° S 22:15:13 10° SE night (unlit)
22 Jan - 23:53:40 10° SW 23:56:37 16° S 23:59:34 10° SE night (unlit)
23 Jan - 01:38:09 10° SW 01:41:16 17° S 01:44:23 10° SE night (unlit)
23 Jan - 03:22:15 10° SW 03:25:51 21° S 03:29:28 10° SE visible
23 Jan - 05:06:14 10° SW 05:10:22 28° S 05:14:30 10° ESE visible
23 Jan - 06:50:18 10° WSW 06:54:49 40° S 06:59:18 10° ESE daylight
23 Jan - 08:34:31 10° WSW 08:39:13 56° S 08:43:53 10° E daylight
23 Jan - 10:18:53 10° W 10:23:37 72° S 10:28:20 10° E daylight
23 Jan - 12:03:17 10° W 12:08:02 77° S 12:12:44 10° E daylight
23 Jan - 13:47:43 10° W 13:52:25 70° S 13:57:06 10° E daylight
23 Jan - 15:32:12 10° W 15:36:47 53° S 15:41:23 10° ESE daylight
23 Jan - 17:16:50 10° WSW 17:21:11 37° S 17:25:33 10° ESE daylight
23 Jan - 19:01:39 10° WSW 19:05:36 26° S 19:09:34 10° SE visible
23 Jan - 20:46:41 10° SW 20:50:06 20° S 20:53:33 10° SE visible
23 Jan - 22:31:41 10° SW 22:34:42 16° S 22:37:43 10° SE night (unlit)
24 Jan - 00:16:23 10° SW 00:19:21 16° S 00:22:19 10° SE night (unlit)
24 Jan - 02:00:37 10° SW 02:03:57 19° S 02:07:19 10° SE night (unlit)
24 Jan - 03:44:37 10° SW 03:48:31 24° S 03:52:25 10° ESE visible
24 Jan - 05:28:38 10° WSW 05:33:00 34° S 05:37:20 10° ESE visible
24 Jan - 07:12:47 10° WSW 07:17:24 48° S 07:22:02 10° E daylight
24 Jan - 08:57:04 10° WSW 09:01:49 65° S 09:06:32 10° E daylight
24 Jan - 10:41:28 10° W 10:46:13 76° S 10:50:57 10° E daylight
24 Jan - 12:25:54 10° W 12:30:38 75° S 12:35:19 10° E daylight
24 Jan - 14:10:22 10° W 14:15:01 62° S 14:19:40 10° ESE daylight
24 Jan - 15:54:54 10° WSW 15:59:24 44° S 16:03:53 10° ESE daylight
24 Jan - 17:39:38 10° WSW 17:43:47 31° S 17:47:57 10° SE daylight
24 Jan - 19:24:35 10° WSW 19:28:15 22° S 19:31:56 10° SE visible
24 Jan - 21:09:38 10° SW 21:12:48 18° S 21:15:58 10° SE visible
24 Jan - 22:54:31 10° SW 22:57:25 16° S 23:00:20 10° SE night (unlit)
25 Jan - 00:38:57 10° SW 00:42:04 17° S 00:45:10 10° SE night (unlit)
25 Jan - 02:23:01 10° SW 02:26:39 21° S 02:30:16 10° SE night (unlit)
25 Jan - 04:07:00 10° SW 04:11:09 29° S 04:15:18 10° ESE visible
25 Jan - 05:51:04 10° WSW 05:55:36 41° S 06:00:07 10° ESE visible
25 Jan - 07:35:18 10° WSW 07:40:00 57° S 07:44:42 10° E daylight
25 Jan - 09:19:39 10° W 09:24:25 72° S 09:29:10 10° E daylight
25 Jan - 11:04:04 10° W 11:08:49 77° S 11:13:33 10° E daylight
25 Jan - 12:48:31 10° W 12:53:14 69° S 12:57:55 10° E daylight
25 Jan - 14:33:01 10° W 14:37:37 53° S 14:42:12 10° ESE daylight
25 Jan - 16:17:39 10° WSW 16:21:59 37° S 16:26:21 10° ESE daylight
25 Jan - 18:02:30 10° WSW 18:06:25 26° S 18:10:20 10° SE daylight
25 Jan - 19:47:32 10° SW 19:50:55 19° S 19:54:19 10° SE visible
25 Jan - 21:32:33 10° SW 21:35:31 16° S 21:38:29 10° SE visible
25 Jan - 23:17:12 10° SW 23:20:08 16° S 23:23:05 10° SE night (unlit)
26 Jan - 01:01:25 10° SW 01:04:45 19° S 01:08:06 10° SE night (unlit)
26 Jan - 02:45:24 10° SW 02:49:18 24° S 02:53:12 10° ESE night (unlit)
26 Jan - 04:29:24 10° WSW 04:33:46 34° S 04:38:08 10° ESE visible
26 Jan - 06:13:33 10° WSW 06:18:12 49° S 06:22:50 10° E visible
26 Jan - 07:57:50 10° WSW 08:02:37 66° S 08:07:21 10° E daylight
26 Jan - 09:42:14 10° W 09:47:01 77° S 09:51:46 10° E daylight
26 Jan - 11:26:40 10° W 11:31:26 75° S 11:36:09 10° E daylight
26 Jan - 13:11:09 10° W 13:15:50 61° S 13:20:28 10° ESE daylight
26 Jan - 14:55:43 10° WSW 15:00:13 44° S 15:04:42 10° ESE daylight
26 Jan - 16:40:28 10° WSW 16:44:36 30° S 16:48:45 10° SE daylight
26 Jan - 18:25:26 10° WSW 18:29:04 22° S 18:32:43 10° SE daylight
26 Jan - 20:10:30 10° SW 20:13:37 17° S 20:16:44 10° SE visible
26 Jan - 21:55:22 10° SW 21:58:14 16° S 22:01:06 10° SE night (unlit)
26 Jan - 23:39:45 10° SW 23:42:51 17° S 23:45:57 10° SE night (unlit)
27 Jan - 01:23:49 10° SW 01:27:26 21° S 01:31:04 10° SE night (unlit)
27 Jan - 03:07:46 10° SW 03:11:56 29° S 03:16:06 10° ESE visible
27 Jan - 04:51:50 10° WSW 04:56:22 41° S 05:00:55 10° ESE visible
27 Jan - 06:36:04 10° WSW 06:40:47 58° S 06:45:31 10° E daylight
27 Jan - 08:20:25 10° W 08:25:13 73° S 08:29:59 10° E daylight
27 Jan - 10:04:51 10° W 10:09:38 77° S 10:14:23 10° E daylight
27 Jan - 11:49:18 10° W 11:54:02 69° S 11:58:44 10° E daylight
27 Jan - 13:33:49 10° W 13:38:25 52° S 13:43:01 10° ESE daylight
27 Jan - 15:18:28 10° WSW 15:22:48 36° S 15:27:08 10° ESE daylight
27 Jan - 17:03:20 10° WSW 17:07:14 25° S 17:11:08 10° SE daylight
27 Jan - 18:48:23 10° SW 18:51:44 19° S 18:55:05 10° SE visible
27 Jan - 20:33:24 10° SW 20:36:19 16° S 20:39:15 10° SE visible
27 Jan - 22:18:03 10° SW 22:20:57 16° S 22:23:52 10° SE night (unlit)
28 Jan - 00:02:13 10° SW 00:05:33 19° S 00:08:54 10° SE night (unlit)
28 Jan - 01:46:11 10° SW 01:50:05 25° S 01:54:00 10° ESE night (unlit)
28 Jan - 03:30:11 10° WSW 03:34:33 35° S 03:38:56 10° ESE visible
28 Jan - 05:14:19 10° WSW 05:18:58 50° S 05:23:38 10° E visible
28 Jan - 06:58:37 10° WSW 07:03:23 67° S 07:08:09 10° E daylight
28 Jan - 08:43:00 10° W 08:47:48 77° S 08:52:35 10° E daylight
28 Jan - 10:27:27 10° W 10:32:14 74° S 10:36:59 10° E daylight
28 Jan - 12:11:56 10° W 12:16:38 61° S 12:21:19 10° ESE daylight
28 Jan - 13:56:31 10° WSW 14:01:01 43° S 14:05:30 10° ESE daylight
28 Jan - 15:41:17 10° WSW 15:45:25 30° S 15:49:33 10° SE daylight
28 Jan - 17:26:16 10° SW 17:29:53 22° S 17:33:30 10° SE daylight
28 Jan - 19:11:21 10° SW 19:14:26 17° S 19:17:31 10° SE visible
28 Jan - 20:56:13 10° SW 20:59:02 16° S 21:01:53 10° SE visible
28 Jan - 22:40:35 10° SW 22:43:39 17° S 22:46:44 10° SE night (unlit)
29 Jan - 00:24:37 10° SW 00:28:14 21° S 00:31:51 10° SE night (unlit)
29 Jan - 02:08:34 10° SW 02:12:43 29° S 02:16:53 10° ESE night (unlit)
29 Jan - 03:52:37 10° WSW 03:57:09 42° S 04:01:42 10° ESE visible
29 Jan - 05:36:50 10° WSW 05:41:34 59° S 05:46:18 10° E visible
29 Jan - 07:21:11 10° W 07:25:59 73° S 07:30:46 10° E daylight
29 Jan - 09:05:37 10° W 09:10:25 77° S 09:15:12 10° E daylight
29 Jan - 10:50:04 10° W 10:54:50 68° S 10:59:34 10° E daylight
29 Jan - 12:34:36 10° W 12:39:14 52° S 12:43:50 10° ESE daylight
29 Jan - 14:19:17 10° WSW 14:23:37 36° S 14:27:57 10° ESE daylight
29 Jan - 16:04:09 10° WSW 16:08:03 25° S 16:11:55 10° SE daylight
29 Jan - 17:49:14 10° SW 17:52:33 19° S 17:55:53 10° SE daylight
29 Jan - 19:34:15 10° SW 19:37:09 16° S 19:40:02 10° SE visible
29 Jan - 21:18:52 10° SW 21:21:46 16° S 21:24:39 10° SE visible
29 Jan - 23:03:01 10° SW 23:06:21 19° S 23:09:41 10° SE night (unlit)
30 Jan - 00:46:59 10° SW 00:50:53 25° S 00:54:48 10° ESE night (unlit)
30 Jan - 02:30:58 10° WSW 02:35:19 35° S 02:39:43 10° ESE night (unlit)
30 Jan - 04:15:06 10° WSW 04:19:45 50° S 04:24:25 10° E visible
30 Jan - 05:59:23 10° W 06:04:10 67° S 06:08:56 10° E visible
30 Jan - 07:43:47 10° W 07:48:35 77° S 07:53:23 10° E daylight
30 Jan - 09:28:13 10° W 09:33:01 74° S 09:37:47 10° E daylight
30 Jan - 11:12:42 10° W 11:17:25 60° S 11:22:07 10° ESE daylight
30 Jan - 12:57:18 10° WSW 13:01:49 43° S 13:06:19 10° ESE daylight
30 Jan - 14:42:05 10° WSW 14:46:13 30° S 14:50:21 10° SE daylight
30 Jan - 16:27:06 10° SW 16:30:42 21° S 16:34:18 10° SE daylight
30 Jan - 18:12:11 10° SW 18:15:14 17° S 18:18:19 10° SE daylight
30 Jan - 19:57:02 10° SW 19:59:52 16° S 20:02:40 10° SE visible
30 Jan - 21:41:25 10° SW 21:44:28 17° S 21:47:32 10° SE visible
30 Jan - 23:25:25 10° SW 23:29:01 21° S 23:32:39 10° SE night (unlit)
